Overview Statistics Trail Chart Weather Telemetry Raw packets
 

This is the latest recevied weather packets stored in our database for station/object N7WSS. If no packets are shown the sender has not sent any weather packets the latest 10 day(s).

<< 104 105 106 107 108 109 110 >>
Time Temp. Humidity Pressure Rain* Wind** Luminosity Snow
1787847064 33.89° C 41% 1015.7 hPa 0 mm - - -
1787846760 33.33° C 40% 1016.1 hPa 0 mm - - -
1787846460 33.33° C 41% 1016.1 hPa 0 mm - - -
1787846156 33.33° C 42% 1016.1 hPa 0 mm - - -
1787845851 32.78° C 42% 1015.9 hPa 0 mm - - -
1787845547 33.33° C 41% 1016.2 hPa 0 mm - - -
1787845247 33.33° C 39% 1016.4 hPa 0 mm - - -
1787844944 33.33° C 39% 1016.2 hPa 0 mm - - -
1787844637 32.78° C 41% 1016.1 hPa 0 mm - - -
1787844332 32.22° C 42% 1016.1 hPa 0 mm - - -
1787844032 32.22° C 42% 1016.1 hPa 0 mm - - -
1787843726 32.22° C 42% 1016.2 hPa 0 mm - - -
1787843421 32.22° C 42% 1016.1 hPa 0 mm - - -
1787843119 31.67° C 42% 1016 hPa 0 mm - - -
1787842819 31.67° C 43% 1016.2 hPa 0 mm - - -
1787842519 31.11° C 44% 1016.3 hPa 0 mm - - -
1787842218 30.56° C 44% 1016.3 hPa 0 mm - - -
1787841913 30.56° C 44% 1016.2 hPa 0 mm - - -
1787841610 30.56° C 44% 1016.3 hPa 0 mm - - -
1787841308 30.56° C 43% 1016.4 hPa 0 mm - - -
1787841003 30.56° C 43% 1016.3 hPa 0 mm - - -
1787840698 30.56° C 43% 1016.2 hPa 0 mm - - -
1787840393 30° C 43% 1016.3 hPa 0 mm - - -
1787840089 30° C 43% 1016.1 hPa 0 mm - - -
1787839783 29.44° C 43% 1016.1 hPa 0 mm - - -

* Rain latest hour (hover to see other rain measurements)
** Current wind speed in m/s (hover to see current wind gust speed)